Location: Cosy Dell
(34.2789°N, 117.4537°W)
Time: 20:29:39
(UTC+00:00)

Cosmos 2056 Rocket - Pass Details

Date: 14 July 2020
Orbit: 741 x 801 km, 74.0° (Epoch: 13 August)

Event Time Altitude Azimuth Distance (km) Brightness Sun altitude
Rises 05:59:09 0° 339° (NNW) 3,313 8.0 -27.6°
Reaches altitude 10° 06:01:34 10° 336° (NNW) 2,381 7.0 -27.9°
Enters shadow 06:06:48 64° 265° (W) 881 3.7 -28.4°
